Home   Weather   Turin   Past weeks

Flag for Italy Past Weather in Turin, Italy — Yesterday and Last 2 Weeks

Now
72 °F

Sunny.


Feels Like: 72 °F
Forecast: 68 / 90 °F
Wind: 3 mph from Southeast

Location: Torino / Bric Della Croce

Current Time: Jul 22, 2017 at 2:51:01 pm

Latest Report: Jul 22, 2017 at 12:55 pm


Visibility: 10 mi

Pressure: 30.04 "Hg

Humidity: 78%

Dew Point: 64 °F

Location of TurinLocation

Past Weather in Turin — Graph

°F

Turin Temperature Yesterday

Maximum temperature yesterday: 73 °F (at 2:55 pm)
Minimum temperature yesterday: 63 °F (at 7:55 pm)
Average temperature yesterday: 67 °F

High & Low Weather Summary for the Past Weeks

 TemperatureHumidityPressure
High84 °F (Jul 7, 4:55 pm)100% (Jul 8, 8:55 am)30.24 "Hg (Jul 8, 8:55 am)
Low63 °F (Jul 10, 10:55 pm)29% (Jul 15, 9:55 pm)29.92 "Hg (Jul 10, 3:55 am)
Average72 °F74%30.02 "Hg
* Reported Jul 7 12:55 pm — Jul 22 12:55 pm, Turin. Weather by CustomWeather, © 2017

Note: Actual official high and low records may vary slightly from our data, if they occured in-between our weather recording intervals... More about our weather records

Advertising

Turin Weather History for the Previous 24 Hours

Scroll right to see more
 ConditionsComfort  
Time TempWeatherWind HumidityBarometerVisibility
12:55 pm
Sat, Jul 22
72 °FSunny.3 mph78%30.04 "Hg10 mi
11:55 am70 °FSunny.No wind94%30.04 "Hg10 mi
10:55 am68 °FSunny.No wind94%30.01 "Hg10 mi
9:55 am68 °FSunny.3 mph94%30.01 "Hg10 mi
8:55 am66 °FSunny.No wind100%30.01 "Hg10 mi
7:55 am66 °FSunny.3 mph94%30.01 "Hg10 mi
6:55 am66 °FSunny.5 mph100%29.98 "Hg10 mi
5:55 am64 °FClear.3 mph100%29.98 "Hg10 mi
4:55 am64 °FClear.2 mph94%29.98 "Hg10 mi
3:55 am64 °FClear.3 mph83%29.98 "Hg10 mi
2:55 am66 °FClear.2 mph73%29.98 "Hg10 mi
1:55 am66 °FClear.2 mph73%29.95 "Hg10 mi
12:55 am68 °FClear.2 mph60%29.95 "Hg10 mi
11:55 pm
Fri, Jul 21
66 °FClear.3 mph73%29.95 "Hg10 mi
10:55 pm66 °FPassing clouds.8 mph56%29.95 "HgN/A
9:55 pm63 °FPassing clouds.14 mph83%29.95 "HgN/A
8:55 pm63 °FScattered clouds.15 mph100%29.95 "HgN/A
7:55 pm63 °FLight rain. Scattered clouds.7 mph100%29.95 "HgN/A
6:55 pm64 °FScattered clouds.7 mph88%29.95 "HgN/A
6:15 pm64 °FThunderstorms. Scattered clouds.8 mph94%29.95 "HgN/A
5:55 pm66 °FStrong thunderstorms. Dense fog.17 mph94%29.95 "Hg0 mi
4:55 pm73 °FScattered clouds.6 mph78%29.95 "HgN/A
3:55 pm73 °FScattered clouds.3 mph78%29.98 "HgN/A
2:55 pm73 °FPassing clouds.No wind78%29.98 "HgN/A
Weather by CustomWeather, © 2017

See weather overviewHow to use our weather pages